TimeCDT,TemperatureF,Dew PointF,Humidity,Sea Level PressureIn,VisibilityMPH,Wind Direction,Wind SpeedMPH,Gust SpeedMPH,PrecipitationIn,Events,Conditions,WindDirDegrees,DateUTC
2:56 AM,9.0,1.9,73,30.14,10.0,WNW,6.9,-,N/A,,Clear,290,2013-03-19 07:56:00
3:56 AM,7.0,1.0,77,30.14,10.0,WNW,4.6,-,N/A,,Clear,290,2013-03-19 08:56:00
4:56 AM,6.1,1.0,80,30.12,10.0,North,3.5,-,N/A,,Clear,10,2013-03-19 09:56:00
5:56 AM,8.1,1.0,73,30.17,10.0,SW,5.8,-,N/A,,Clear,230,2013-03-19 10:56:00
6:56 AM,7.0,1.0,77,30.17,10.0,NW,3.5,-,N/A,,Clear,310,2013-03-19 11:56:00
7:56 AM,9.0,1.9,73,30.19,10.0,North,5.8,-,N/A,,Mostly Cloudy,360,2013-03-19 12:56:00
8:56 AM,10.9,3.0,70,30.19,10.0,NNW,3.5,-,N/A,,Mostly Cloudy,340,2013-03-19 13:56:00
9:47 AM,15.8,3.2,58,30.12,10.0,NNE,5.8,-,N/A,,Scattered Clouds,20,2013-03-19 14:47:00
9:56 AM,15.1,3.9,61,30.20,10.0,Variable,3.5,-,N/A,,Scattered Clouds,0,2013-03-19 14:56:00
10:56 AM,19.0,7.0,59,30.22,10.0,ENE,3.5,-,N/A,,Scattered Clouds,60,2013-03-19 15:56:00
11:56 AM,21.9,6.1,51,30.23,10.0,NNW,4.6,-,N/A,,Scattered Clouds,330,2013-03-19 16:56:00
12:56 PM,25.0,8.1,49,30.22,10.0,Variable,4.6,-,N/A,,Partly Cloudy,0,2013-03-19 17:56:00
1:56 PM,26.1,10.0,51,30.24,10.0,NNW,8.1,-,N/A,,Partly Cloudy,330,2013-03-19 18:56:00
2:56 PM,28.0,12.9,53,30.24,10.0,NW,8.1,-,N/A,,Partly Cloudy,310,2013-03-19 19:56:00
3:56 PM,28.9,15.1,56,30.25,10.0,NW,11.5,16.1,N/A,,Mostly Cloudy,320,2013-03-19 20:56:00
4:56 PM,28.0,15.1,58,30.28,10.0,NW,20.7,26.5,N/A,,Overcast,320,2013-03-19 21:56:00
5:44 PM,28.4,15.8,59,30.22,10.0,NNW,17.3,26.5,N/A,,Mostly Cloudy,330,2013-03-19 22:44:00
5:56 PM,25.0,15.1,66,30.31,10.0,North,21.9,26.5,0.00,Snow,Light Snow,350,2013-03-19 22:56:00
6:56 PM,21.9,14.0,72,30.34,10.0,NNW,20.7,24.2,0.00,,Mostly Cloudy,340,2013-03-19 23:56:00
7:37 PM,19.4,12.2,74,30.27,10.0,NNW,19.6,24.2,0.00,,Scattered Clouds,340,2013-03-20 00:37:00
7:56 PM,18.0,10.9,74,30.37,10.0,NNW,16.1,-,0.00,,Scattered Clouds,340,2013-03-20 00:56:00
8:33 PM,17.6,10.4,73,30.28,10.0,NNW,15.0,25.3,0.00,Snow,Light Snow,330,2013-03-20 01:33:00
8:44 PM,17.6,10.4,73,30.28,9.0,NNW,19.6,26.5,0.00,Snow,Light Snow,340,2013-03-20 01:44:00
8:56 PM,18.0,10.9,74,30.38,9.0,NNW,16.1,-,0.00,Snow,Light Snow,330,2013-03-20 01:56:00
9:00 PM,17.6,10.4,73,30.29,9.0,NNW,18.4,24.2,0.00,Snow,Light Snow,340,2013-03-20 02:00:00
9:21 PM,17.6,8.6,68,30.29,9.0,NNW,18.4,31.1,0.00,Snow,Light Snow,330,2013-03-20 02:21:00
9:50 PM,15.8,8.6,73,30.30,9.0,NNW,19.6,26.5,0.00,Snow,Light Snow,330,2013-03-20 02:50:00
9:56 PM,16.0,8.1,71,30.40,9.0,NNW,20.7,27.6,0.00,Snow,Light Snow,340,2013-03-20 02:56:00
10:12 PM,15.8,8.6,73,30.31,9.0,NNW,20.7,26.5,0.00,Snow,Light Snow,330,2013-03-20 03:12:00
10:24 PM,15.8,8.6,73,30.32,9.0,NNW,19.6,28.8,0.00,Snow,Light Snow,330,2013-03-20 03:24:00
10:56 PM,15.1,7.0,70,30.41,10.0,NNW,18.4,24.2,0.00,,Partly Cloudy,330,2013-03-20 03:56:00
11:56 PM,12.9,3.9,67,30.41,10.0,NNW,16.1,25.3,N/A,,Clear,330,2013-03-20 04:56:00